W2JV-2 Weather Reports


Display with metric or nautical units.
time (UTC)temp
F
wind
direction
speed
MPH
gust
MPH
rain 1hr
in
rain 24hr
in
rain mn
in
humidity
%
barometer
mb
20260505140504 69 230 5.0 10.0 0.00 0.00 0.00 58 1011.0
20260505125002 62 203 1.0 3.0 0.00 0.00 0.00 68 1011.0
20260505124503 62 220 2.0 3.0 0.00 0.00 0.00 68 1011.0
20260505124003 62 193 2.0 3.0 0.00 0.00 0.00 68 1010.8
20260505123503 61 186 1.0 3.0 0.00 0.00 0.00 68 1010.8
20260505123002 61 173 1.0 3.0 0.00 0.00 0.00 68 1010.8
20260505122502 61 160 1.0 3.0 0.00 0.00 0.00 69 1010.9
20260505122003 61 225 1.0 3.0 0.00 0.00 0.00 69 1011.0
20260505121003 60 222 1.0 8.0 0.00 0.00 0.00 71 1011.0
20260505120503 59 194 1.0 3.0 0.00 0.00 0.00 71 1010.9
20260505120003 59 222 1.0 5.0 0.00 0.00 0.00 72 1010.9
20260505115504 59 214 2.0 5.0 0.00 0.00 0.00 73 1011.0
20260505115002 58 208 1.0 3.0 0.00 0.00 0.00 74 1011.1
20260505114504 58 213 1.0 3.0 0.00 0.00 0.00 76 1011.1
20260505114002 58 220 1.0 3.0 0.00 0.00 0.00 77 1011.3
20260505113502 57 207 2.0 7.0 0.00 0.00 0.00 78 1011.2
20260505112503 56 208 1.0 6.0 0.00 0.00 0.00 79 1011.3
20260505111503 56 192 1.0 2.0 0.00 0.00 0.00 79 1011.1
20260505111002 56 186 1.0 3.0 0.00 0.00 0.00 79 1011.1
20260505102002 54 188 1.0 3.0 0.00 0.00 0.00 78 1010.2
20260505101504 54 186 1.0 3.0 0.00 0.00 0.00 78 1010.2
20260505101003 54 186 1.0 2.0 0.00 0.00 0.00 77 1010.2
20260505100503 54 187 1.0 3.0 0.00 0.00 0.00 77 1010.1
20260505100002 54 189 1.0 3.0 0.00 0.00 0.00 77 1010.0
20260505095502 54 191 0.0 2.0 0.00 0.00 0.00 77 1010.0
20260505095003 54 187 1.0 3.0 0.00 0.00 0.00 77 1009.9
20260505094503 54 191 1.0 3.0 0.00 0.00 0.00 77 1010.0
20260505094003 54 185 1.0 3.0 0.00 0.00 0.00 77 1010.1
20260505093503 54 189 1.0 3.0 0.00 0.00 0.00 76 1010.0
20260505093003 54 187 1.0 2.0 0.00 0.00 0.00 76 1010.0
20260505092502 54 185 1.0 3.0 0.00 0.00 0.00 76 1010.0
20260505092002 54 186 1.0 3.0 0.00 0.00 0.00 76 1010.0
20260505091003 55 188 1.0 3.0 0.00 0.00 0.00 76 1010.0
20260505090503 55 187 1.0 3.0 0.00 0.00 0.00 76 1010.1
20260505090003 55 186 1.0 3.0 0.00 0.00 0.00 76 1010.1
20260505085503 55 187 1.0 3.0 0.00 0.00 0.00 75 1010.0
20260505084503 55 189 1.0 3.0 0.00 0.00 0.00 75 1010.1
20260505084002 55 185 1.0 3.0 0.00 0.00 0.00 75 1010.0
20260505083504 55 186 1.0 3.0 0.00 0.00 0.00 75 1010.0
20260505083003 55 187 1.0 3.0 0.00 0.00 0.00 75 1010.0
20260505082503 55 187 1.0 3.0 0.00 0.00 0.00 75 1010.0
20260505082004 55 189 1.0 3.0 0.00 0.00 0.00 75 1010.0
20260505081003 55 186 1.0 3.0 0.00 0.00 0.00 74 1010.1
20260505080503 55 189 1.0 3.0 0.00 0.00 0.00 74 1010.1
20260505080003 55 186 1.0 3.0 0.00 0.00 0.00 74 1010.1
20260505075503 55 189 1.0 3.0 0.00 0.00 0.00 74 1010.0
20260505075003 55 184 1.0 3.0 0.00 0.00 0.00 74 1010.0
20260505074502 55 191 2.0 3.0 0.00 0.00 0.00 74 1010.1
20260505074004 55 188 1.0 3.0 0.00 0.00 0.00 74 1010.0
20260505073003 55 186 1.0 3.0 0.00 0.00 0.00 74 1010.0
20260505072504 55 187 1.0 3.0 0.00 0.00 0.00 74 1010.1
20260505072003 55 208 1.0 3.0 0.00 0.00 0.00 74 1010.1
20260505071003 55 188 1.0 3.0 0.00 0.00 0.00 73 1010.1
20260505070502 55 181 1.0 3.0 0.00 0.00 0.00 73 1010.0
20260505070003 55 210 1.0 3.0 0.00 0.00 0.00 73 1010.1
20260505065502 55 178 1.0 3.0 0.00 0.00 0.00 73 1010.1
20260505065004 55 191 1.0 3.0 0.00 0.00 0.00 73 1010.1
20260505064504 55 190 1.0 3.0 0.00 0.00 0.00 73 1010.1
20260505064004 55 195 1.0 3.0 0.00 0.00 0.00 73 1010.2
20260505063003 55 211 1.0 3.0 0.00 0.00 0.00 72 1010.2
20260505062503 56 203 1.0 3.0 0.00 0.00 0.00 72 1010.2
20260505062003 56 168 1.0 5.0 0.00 0.00 0.00 72 1010.2
20260505061502 56 200 1.0 3.0 0.00 0.00 0.00 72 1010.2
20260505061003 56 196 1.0 3.0 0.00 0.00 0.00 72 1010.3
20260505060503 56 186 1.0 5.0 0.00 0.00 0.00 72 1010.3
20260505060003 56 202 1.0 3.0 0.00 0.00 0.00 72 1010.3
20260505055504 56 195 1.0 3.0 0.00 0.00 0.00 72 1010.4
20260505054503 56 194 2.0 3.0 0.00 0.00 0.00 71 1010.4
20260505054003 56 187 1.0 3.0 0.00 0.00 0.00 71 1010.4
20260505053503 56 189 1.0 3.0 0.00 0.00 0.00 71 1010.5
20260505053003 56 192 1.0 3.0 0.00 0.00 0.00 71 1010.5
20260505052503 56 203 1.0 5.0 0.00 0.00 0.00 70 1010.4
20260505052002 56 194 1.0 3.0 0.00 0.00 0.00 70 1010.4
20260505051503 56 190 2.0 5.0 0.00 0.00 0.00 70 1010.5
20260505051003 56 190 1.0 3.0 0.00 0.00 0.00 70 1010.5
20260505050503 56 183 1.0 3.0 0.00 0.00 0.00 69 1010.6
20260505041504 57 201 1.0 3.0 0.00 0.00 0.00 67 1010.9
20260505040502 57 217 1.0 3.0 0.00 0.00 0.00 67 1010.9
20260505040004 57 203 1.0 3.0 0.00 0.00 0.00 67 1010.9
20260505035503 57 204 1.0 5.0 0.00 0.00 0.00 67 1010.8
20260505035002 57 214 1.0 3.0 0.00 0.00 0.00 67 1010.9
20260505034503 57 196 1.0 3.0 0.00 0.00 0.00 66 1010.9
20260505033503 57 219 2.0 5.0 0.00 0.00 0.00 66 1010.9
20260505033003 57 207 1.0 3.0 0.00 0.00 0.00 66 1010.9
20260505032004 58 201 1.0 3.0 0.00 0.00 0.00 65 1010.9
20260505031502 58 190 1.0 3.0 0.00 0.00 0.00 65 1011.0
20260505031003 58 209 1.0 3.0 0.00 0.00 0.00 65 1011.0
20260505030504 58 221 1.0 3.0 0.00 0.00 0.00 64 1011.1
20260505030002 58 213 1.0 3.0 0.00 0.00 0.00 64 1011.1
20260505025504 58 208 1.0 3.0 0.00 0.00 0.00 63 1011.1
20260505025004 58 226 1.0 3.0 0.00 0.00 0.00 63 1011.1
20260505024502 58 171 1.0 3.0 0.00 0.00 0.00 62 1011.1
20260505023503 59 223 1.0 3.0 0.00 0.00 0.00 61 1011.1
20260505023003 59 229 2.0 5.0 0.00 0.00 0.00 61 1011.1
20260505022503 59 213 2.0 7.0 0.00 0.00 0.00 61 1011.2
20260505022002 59 221 1.0 5.0 0.00 0.00 0.00 61 1011.2
20260505021503 59 221 2.0 7.0 0.00 0.00 0.00 61 1011.2
20260505021002 59 237 2.0 7.0 0.00 0.00 0.00 61 1011.2
20260505020002 59 223 1.0 5.0 0.00 0.00 0.00 60 1011.2
20260505015502 59 218 2.0 6.0 0.00 0.00 0.00 60 1011.2
20260505014503 59 235 1.0 3.0 0.00 0.00 0.00 60 1011.2
20260505013003 59 224 2.0 6.0 0.00 0.00 0.00 60 1011.0
20260505012003 59 229 1.0 5.0 0.00 0.00 0.00 60 1010.9
20260505011504 59 216 2.0 7.0 0.00 0.00 0.00 59 1010.9
20260505011003 59 214 2.0 7.0 0.00 0.00 0.00 59 1010.8
20260505010503 59 227 2.0 5.0 0.00 0.00 0.00 59 1010.8
20260505010003 59 225 2.0 9.0 0.00 0.00 0.00 59 1010.7
20260505005503 59 229 2.0 6.0 0.00 0.00 0.00 60 1010.7
20260505005004 59 202 1.0 6.0 0.00 0.00 0.00 59 1010.6
20260505004502 59 210 1.0 5.0 0.00 0.00 0.00 60 1010.5
20260505003502 59 205 3.0 9.0 0.00 0.00 0.00 60 1010.3
20260505003003 59 210 1.0 6.0 0.00 0.00 0.00 60 1010.2
20260505001503 59 208 1.0 3.0 0.00 0.00 0.00 60 1010.1
20260505001003 59 199 1.0 5.0 0.00 0.00 0.00 60 1010.1
20260505000503 59 218 1.0 6.0 0.00 0.00 0.00 60 1010.0
20260505000004 59 212 2.0 7.0 0.00 0.00 0.00 60 1009.9
20260504235504 59 215 2.0 5.0 0.00 0.00 0.00 60 1009.8
20260504234003 60 210 2.0 6.0 0.00 0.00 0.00 59 1009.7
20260504233503 60 204 1.0 7.0 0.00 0.00 0.00 58 1009.7
20260504233002 60 197 1.0 5.0 0.00 0.00 0.00 58 1009.8
20260504232502 60 215 3.0 7.0 0.00 0.00 0.00 57 1009.7
20260504232003 61 174 2.0 5.0 0.00 0.00 0.00 57 1009.6
20260504231503 61 204 2.0 7.0 0.00 0.00 0.00 56 1009.6
20260504231003 61 205 2.0 7.0 0.00 0.00 0.00 55 1009.6
20260504230504 61 185 2.0 6.0 0.00 0.00 0.00 55 1009.5
20260504225003 62 194 3.0 10.0 0.00 0.00 0.00 52 1009.5
20260504224003 63 188 3.0 8.0 0.00 0.00 0.00 50 1009.5
20260504223003 64 219 3.0 8.0 0.00 0.00 0.00 49 1009.6
20260504222503 64 211 3.0 9.0 0.00 0.00 0.00 49 1009.6
20260504222004 64 223 3.0 8.0 0.00 0.00 0.00 48 1009.7
20260504221503 65 237 5.0 9.0 0.00 0.00 0.00 47 1009.7
20260504221002 65 221 6.0 13.0 0.00 0.00 0.00 46 1009.7
20260504220504 65 229 5.0 9.0 0.00 0.00 0.00 45 1009.8
20260504215503 66 233 4.0 10.0 0.00 0.00 0.00 45 1009.8
20260504215003 66 233 6.0 17.0 0.00 0.00 0.00 44 1009.9
20260504214502 66 226 5.0 10.0 0.00 0.00 0.00 44 1009.8
20260504214003 66 194 3.0 7.0 0.00 0.00 0.00 46 1009.8
20260504213004 66 200 4.0 8.0 0.00 0.00 0.00 45 1009.9
20260504212503 66 201 5.0 12.0 0.00 0.00 0.00 44 1009.9
20260504212003 66 202 6.0 12.0 0.00 0.00 0.00 44 1009.8
20260504211503 67 170 5.0 10.0 0.00 0.00 0.00 44 1009.9
20260504211003 67 215 6.0 12.0 0.00 0.00 0.00 45 1009.9
20260504210003 67 226 6.0 14.0 0.00 0.00 0.00 44 1009.8
20260504205502 67 193 5.0 14.0 0.00 0.00 0.00 44 1009.8
20260504205003 68 202 5.0 13.0 0.00 0.00 0.00 44 1009.8
20260504204002 68 237 6.0 13.0 0.00 0.00 0.00 43 1009.9
20260504203503 69 223 6.0 12.0 0.00 0.00 0.00 43 1009.9
20260504203003 69 221 5.0 13.0 0.00 0.00 0.00 41 1009.9
20260504202503 70 215 6.0 13.0 0.00 0.00 0.00 40 1009.9
20260504202004 71 190 4.0 9.0 0.00 0.00 0.00 42 1009.8
20260504201503 71 219 4.0 10.0 0.00 0.00 0.00 40 1009.9
20260504201003 71 174 5.0 9.0 0.00 0.00 0.00 40 1009.9
20260504200503 71 215 5.0 10.0 0.00 0.00 0.00 40 1009.9
20260504200004 72 194 5.0 8.0 0.00 0.00 0.00 40 1009.9
20260504195503 72 217 4.0 9.0 0.00 0.00 0.00 39 1010.0
20260504195004 72 224 5.0 12.0 0.00 0.00 0.00 38 1010.0
20260504194504 72 202 5.0 13.0 0.00 0.00 0.00 38 1010.1
20260504194003 72 204 7.0 13.0 0.00 0.00 0.00 36 1010.1
20260504193503 72 231 7.0 15.0 0.00 0.00 0.00 34 1010.1
20260504191503 72 212 6.0 14.0 0.00 0.00 0.00 35 1010.1
20260504190504 73 223 5.0 12.0 0.00 0.00 0.00 35 1010.2
20260504190002 73 187 4.0 12.0 0.00 0.00 0.00 36 1010.3
20260504185502 73 211 5.0 10.0 0.00 0.00 0.00 36 1010.3
20260504185002 73 190 4.0 12.0 0.00 0.00 0.00 34 1010.4
20260504184503 73 227 9.0 13.0 0.00 0.00 0.00 32 1010.3
20260504184003 73 227 9.0 16.0 0.00 0.00 0.00 31 1010.4
20260504183504 73 187 5.0 10.0 0.00 0.00 0.00 34 1010.5
20260504183003 73 240 8.0 13.0 0.00 0.00 0.00 33 1010.6
20260504182504 73 177 6.0 10.0 0.00 0.00 0.00 34 1010.6
20260504182003 73 244 5.0 9.0 0.00 0.00 0.00 34 1010.6
20260504181503 73 219 5.0 12.0 0.00 0.00 0.00 33 1010.7
20260504181003 73 216 6.0 13.0 0.00 0.00 0.00 34 1010.8
20260504180503 73 221 5.0 12.0 0.00 0.00 0.00 34 1010.8
20260504180003 73 229 7.0 13.0 0.00 0.00 0.00 32 1010.8
20260504175503 72 220 4.0 10.0 0.00 0.00 0.00 36 1010.8
20260504175004 72 241 5.0 12.0 0.00 0.00 0.00 35 1010.8
20260504174503 72 239 7.0 10.0 0.00 0.00 0.00 34 1011.0
20260504174003 71 209 3.0 12.0 0.00 0.00 0.00 38 1011.0
20260504173504 72 220 6.0 13.0 0.00 0.00 0.00 36 1010.9
20260504173005 72 227 5.0 10.0 0.00 0.00 0.00 37 1011.0
20260504172503 72 217 5.0 10.0 0.00 0.00 0.00 35 1011.0
20260504172004 72 236 5.0 12.0 0.00 0.00 0.00 34 1011.1
20260504171503 71 188 4.0 10.0 0.00 0.00 0.00 37 1011.2
20260504171003 71 209 5.0 10.0 0.00 0.00 0.00 35 1011.3
20260504170502 71 201 3.0 10.0 0.00 0.00 0.00 36 1011.4
20260504151004 67 251 6.0 14.0 0.00 0.00 0.00 30 1012.7